Back to catalog

STARLINK-35161

AliveCommunicationsVLEO
NORAD 65936·PAYLOAD·🇺🇸 United States

Launched Oct 8, 2025 from Vandenberg Space Force Base

Loading…

Next Passes (next 24 hours)

TLE

FreshSource: CelesTrak SupGP

Epoch: Sep 14, 2026, 21:34 UTC

1 65936C 25225AC  26257.89909722 -.00001943  00000+0 -57418-4 0  2577
2 65936  53.1592   3.8538 0001214  85.3187  98.1547 15.34378124    16

Track STARLINK-35161 in real time with AllMySat

Download on the App Store